AAY2218 KBOI-KPVU

Flight info

Callsign AAY2218
Flight time 0h 35m
Altitude 37000
Route ROARR LYONS
Aircraft A320/M-SDE3FGHIRWY/LB1

Departure

Time 2026-04-27 02:15
Airport Boise Air Terminal/Gowen Field (KBOI)

Arrival

Time 2026-04-27 02:50
Airport Provo Municipal Airport (KPVU)
Time Latitude Longitude Altitude Speed Heading
2026-04-27 01:56 43.56781 -116.21968 2881 ft 0 kts 220°
2026-04-27 02:02 43.56793 -116.21954 2881 ft 4 kts 220°
2026-04-27 02:02 43.56808 -116.21935 2881 ft 4 kts 232°
2026-04-27 02:02 43.56817 -116.21904 2881 ft 3 kts 276°
2026-04-27 02:02 43.56814 -116.21872 2881 ft 4 kts 277°
2026-04-27 02:03 43.56811 -116.21836 2881 ft 3 kts 277°
2026-04-27 02:03 43.56808 -116.21807 2881 ft 4 kts 286°
2026-04-27 02:03 43.56798 -116.21772 2881 ft 4 kts 296°
2026-04-27 02:03 43.56790 -116.21751 2881 ft 0 kts 296°
2026-04-27 02:07 43.56791 -116.21754 2881 ft 2 kts 291°
2026-04-27 02:07 43.56782 -116.21778 2881 ft 3 kts 221°
2026-04-27 02:07 43.56759 -116.21778 2881 ft 5 kts 167°
2026-04-27 02:08 43.56722 -116.21763 2881 ft 6 kts 165°
2026-04-27 02:08 43.56681 -116.21752 2881 ft 6 kts 171°
2026-04-27 02:08 43.56641 -116.21746 2881 ft 6 kts 175°
2026-04-27 02:08 43.56584 -116.21740 2881 ft 8 kts 175°
2026-04-27 02:09 43.56531 -116.21734 2881 ft 7 kts 175°
2026-04-27 02:09 43.56467 -116.21704 2881 ft 11 kts 134°
2026-04-27 02:09 43.56434 -116.21618 2881 ft 10 kts 115°
2026-04-27 02:09 43.56406 -116.21536 2881 ft 13 kts 115°
2026-04-27 02:10 43.56360 -116.21402 2882 ft 15 kts 115°
2026-04-27 02:10 43.56317 -116.21277 2882 ft 16 kts 115°
2026-04-27 02:10 43.56271 -116.21142 2882 ft 15 kts 115°
2026-04-27 02:10 43.56230 -116.21021 2882 ft 13 kts 115°
2026-04-27 02:11 43.56193 -116.20911 2882 ft 12 kts 115°
2026-04-27 02:11 43.56149 -116.20863 2882 ft 6 kts 192°
2026-04-27 02:11 43.56095 -116.20896 2882 ft 13 kts 205°
2026-04-27 02:11 43.56014 -116.20948 2881 ft 11 kts 205°
2026-04-27 02:12 43.55993 -116.20962 2881 ft 0 kts 205°
2026-04-27 02:12 43.55983 -116.20968 2881 ft 3 kts 206°
2026-04-27 02:12 43.55981 -116.20970 2881 ft 0 kts 206°
2026-04-27 02:13 43.55977 -116.20973 2881 ft 4 kts 206°
2026-04-27 02:14 43.55927 -116.21006 2881 ft 8 kts 206°
2026-04-27 02:14 43.55908 -116.21052 2881 ft 5 kts 289°
2026-04-27 02:14 43.55931 -116.21119 2881 ft 16 kts 295°
2026-04-27 02:14 43.56072 -116.21531 2881 ft 83 kts 295°
2026-04-27 02:15 43.56405 -116.22510 2882 ft 140 kts 295°
2026-04-27 02:15 43.56849 -116.23838 3334 ft 153 kts 297°
2026-04-27 02:15 43.57284 -116.25196 4028 ft 158 kts 296°
2026-04-27 02:15 43.57732 -116.26629 4621 ft 167 kts 296°
2026-04-27 02:16 43.58192 -116.28122 5245 ft 172 kts 295°
2026-04-27 02:16 43.58656 -116.29689 5813 ft 181 kts 293°
2026-04-27 02:16 43.58791 -116.31480 6353 ft 201 kts 264°
2026-04-27 02:16 43.58163 -116.33344 6755 ft 233 kts 232°
2026-04-27 02:17 43.56914 -116.34975 7166 ft 261 kts 224°
2026-04-27 02:17 43.55463 -116.36653 7724 ft 280 kts 222°
2026-04-27 02:17 43.53770 -116.37977 8559 ft 291 kts 199°
2026-04-27 02:17 43.51732 -116.38243 9514 ft 299 kts 175°
2026-04-27 02:18 43.49741 -116.37363 10384 ft 307 kts 150°
2026-04-27 02:18 43.48096 -116.35358 10771 ft 331 kts 123°
2026-04-27 02:18 43.47197 -116.32356 11052 ft 353 kts 102°
2026-04-27 02:18 43.46609 -116.28995 11532 ft 367 kts 102°
2026-04-27 02:19 43.46000 -116.25541 12269 ft 373 kts 103°
2026-04-27 02:19 43.45373 -116.22047 13039 ft 379 kts 103°
2026-04-27 02:19 43.44722 -116.18501 13794 ft 384 kts 104°
2026-04-27 02:19 43.44054 -116.14922 14478 ft 389 kts 104°
2026-04-27 02:20 43.43374 -116.11307 15178 ft 392 kts 105°
2026-04-27 02:20 43.42685 -116.07656 15675 ft 396 kts 105°
2026-04-27 02:20 43.41992 -116.03984 15813 ft 396 kts 105°
2026-04-27 02:20 43.41300 -116.00321 15856 ft 396 kts 105°
2026-04-27 02:21 43.40607 -115.96651 15908 ft 398 kts 105°
2026-04-27 02:21 43.39932 -115.93069 16588 ft 401 kts 105°
2026-04-27 02:21 43.39237 -115.89385 16907 ft 406 kts 105°
2026-04-27 02:21 43.38518 -115.85579 17340 ft 416 kts 106°
2026-04-27 02:22 43.37804 -115.81815 18282 ft 422 kts 106°
2026-04-27 02:22 43.37066 -115.77921 19015 ft 419 kts 105°
2026-04-27 02:22 43.36329 -115.74039 19682 ft 420 kts 106°
2026-04-27 02:22 43.35590 -115.70145 20278 ft 422 kts 106°
2026-04-27 02:23 43.34846 -115.66239 20833 ft 425 kts 106°
2026-04-27 02:23 43.34091 -115.62296 21381 ft 428 kts 106°
2026-04-27 02:23 43.33331 -115.58336 21920 ft 430 kts 106°
2026-04-27 02:23 43.32565 -115.54343 22461 ft 433 kts 106°
2026-04-27 02:24 43.31792 -115.50328 22972 ft 436 kts 106°
2026-04-27 02:24 43.31011 -115.46289 23458 ft 439 kts 106°
2026-04-27 02:24 43.30185 -115.42293 23867 ft 441 kts 111°
2026-04-27 02:24 43.28957 -115.38437 24281 ft 441 kts 120°
2026-04-27 02:25 43.27293 -115.34892 24694 ft 441 kts 130°
2026-04-27 02:25 43.25241 -115.31762 25102 ft 440 kts 139°
2026-04-27 02:25 43.23006 -115.28879 25517 ft 442 kts 139°
2026-04-27 02:25 43.20760 -115.25975 25920 ft 445 kts 139°
2026-04-27 02:26 43.18507 -115.23050 26321 ft 447 kts 139°
2026-04-27 02:26 43.16246 -115.20109 26713 ft 450 kts 139°
2026-04-27 02:26 43.13973 -115.17149 27088 ft 452 kts 139°
2026-04-27 02:26 43.11689 -115.14178 27458 ft 454 kts 139°
2026-04-27 02:27 43.09389 -115.11195 27829 ft 456 kts 140°
2026-04-27 02:27 43.06228 -115.07106 28322 ft 459 kts 140°
2026-04-27 02:27 43.01567 -115.01083 29046 ft 463 kts 140°
2026-04-27 02:27 42.96861 -114.95014 29695 ft 467 kts 140°
2026-04-27 02:28 42.93731 -114.90994 30267 ft 465 kts 140°
2026-04-27 02:28 42.89023 -114.84948 31030 ft 463 kts 140°
2026-04-27 02:28 42.82797 -114.76981 32018 ft 462 kts 140°
2026-04-27 02:28 42.78125 -114.71024 32798 ft 460 kts 140°
2026-04-27 02:29 42.74957 -114.67018 33330 ft 459 kts 141°
2026-04-27 02:29 42.70239 -114.61179 34043 ft 458 kts 141°
2026-04-27 02:29 42.65511 -114.55366 34618 ft 458 kts 141°
2026-04-27 02:29 42.60801 -114.49566 35219 ft 458 kts 141°
2026-04-27 02:30 42.56133 -114.43809 35716 ft 459 kts 141°
2026-04-27 02:30 42.51401 -114.37973 36182 ft 461 kts 141°
2026-04-27 02:30 42.46656 -114.32126 36590 ft 462 kts 141°
2026-04-27 02:30 42.41876 -114.26268 36804 ft 464 kts 141°
2026-04-27 02:31 42.32280 -114.14590 36804 ft 464 kts 141°
2026-04-27 02:31 42.22719 -114.02950 36821 ft 463 kts 141°
2026-04-27 02:32 42.13127 -113.91347 36821 ft 463 kts 142°
2026-04-27 02:32 42.03531 -113.79770 36823 ft 462 kts 142°
2026-04-27 02:33 41.93954 -113.68262 36814 ft 462 kts 142°
2026-04-27 02:33 41.84419 -113.56878 36794 ft 461 kts 142°
2026-04-27 02:34 41.74829 -113.45476 36763 ft 460 kts 142°
2026-04-27 02:34 41.65223 -113.34092 36753 ft 461 kts 142°
2026-04-27 02:35 41.55610 -113.22728 36745 ft 461 kts 143°
2026-04-27 02:35 41.45955 -113.11388 36757 ft 462 kts 143°
2026-04-27 02:36 41.36300 -113.00079 36490 ft 462 kts 143°
2026-04-27 02:36 41.31543 -112.94531 35962 ft 460 kts 143°
2026-04-27 02:36 41.26663 -112.88865 34223 ft 469 kts 143°
2026-04-27 02:37 41.21744 -112.83153 32417 ft 469 kts 143°
2026-04-27 02:37 41.16852 -112.77461 30577 ft 468 kts 143°
2026-04-27 02:37 41.12004 -112.71832 27227 ft 463 kts 142°
2026-04-27 02:37 41.07261 -112.66344 25484 ft 429 kts 143°
2026-04-27 02:38 41.02863 -112.61266 24054 ft 420 kts 143°
2026-04-27 02:38 40.98461 -112.56230 22531 ft 415 kts 143°
2026-04-27 02:38 40.94116 -112.51255 21195 ft 409 kts 142°
2026-04-27 02:38 40.90689 -112.47313 20176 ft 404 kts 142°
2026-04-27 02:39 40.88575 -112.44881 19560 ft 400 kts 142°
2026-04-27 02:39 40.86473 -112.42470 18993 ft 401 kts 142°
2026-04-27 02:39 40.84364 -112.40058 18414 ft 399 kts 142°
2026-04-27 02:39 40.82270 -112.37664 17823 ft 397 kts 142°
2026-04-27 02:40 40.80192 -112.35292 17270 ft 393 kts 142°
2026-04-27 02:40 40.78129 -112.32942 16734 ft 389 kts 141°
2026-04-27 02:40 40.76088 -112.30622 16262 ft 386 kts 141°
2026-04-27 02:40 40.74058 -112.28312 15726 ft 384 kts 141°
2026-04-27 02:41 40.72041 -112.26018 15178 ft 382 kts 141°
2026-04-27 02:41 40.70062 -112.23768 14637 ft 381 kts 141°
2026-04-27 02:41 40.68055 -112.21486 14060 ft 381 kts 141°
2026-04-27 02:41 40.66039 -112.19127 13448 ft 388 kts 137°
2026-04-27 02:42 40.64111 -112.16675 12813 ft 390 kts 136°
2026-04-27 02:42 40.62184 -112.14166 12201 ft 388 kts 135°
2026-04-27 02:42 40.60285 -112.11658 11593 ft 385 kts 135°
2026-04-27 02:42 40.58412 -112.09173 10997 ft 381 kts 135°
2026-04-27 02:43 40.56553 -112.06711 10399 ft 376 kts 134°
2026-04-27 02:43 40.54716 -112.04287 9817 ft 372 kts 134°
2026-04-27 02:43 40.52933 -112.01943 9177 ft 353 kts 134°
2026-04-27 02:43 40.51254 -111.99746 8856 ft 327 kts 135°
2026-04-27 02:44 40.49722 -111.97748 8941 ft 292 kts 134°
2026-04-27 02:44 40.48334 -111.95956 8997 ft 271 kts 137°
2026-04-27 02:44 40.46862 -111.94447 8994 ft 268 kts 145°
2026-04-27 02:44 40.45310 -111.93083 9000 ft 270 kts 146°
2026-04-27 02:45 40.43751 -111.91712 8996 ft 269 kts 146°
2026-04-27 02:45 40.42204 -111.90330 8977 ft 271 kts 146°
2026-04-27 02:45 40.40648 -111.88938 8706 ft 270 kts 146°
2026-04-27 02:45 40.39100 -111.87555 8348 ft 268 kts 146°
2026-04-27 02:46 40.37605 -111.86222 8002 ft 258 kts 146°
2026-04-27 02:46 40.36156 -111.84929 7661 ft 243 kts 145°
2026-04-27 02:46 40.34810 -111.83730 7368 ft 223 kts 145°
2026-04-27 02:46 40.33565 -111.82621 7103 ft 212 kts 145°
2026-04-27 02:47 40.32396 -111.81579 6803 ft 193 kts 146°
2026-04-27 02:47 40.31347 -111.80646 6528 ft 173 kts 145°
2026-04-27 02:47 40.30393 -111.79797 6290 ft 160 kts 146°
2026-04-27 02:47 40.29495 -111.78998 6161 ft 153 kts 147°
2026-04-27 02:48 40.28624 -111.78223 5957 ft 150 kts 147°
2026-04-27 02:48 40.27766 -111.77460 5753 ft 148 kts 147°
2026-04-27 02:48 40.26913 -111.76703 5550 ft 148 kts 147°
2026-04-27 02:48 40.26065 -111.75949 5332 ft 147 kts 147°
2026-04-27 02:49 40.25216 -111.75195 5103 ft 148 kts 147°
2026-04-27 02:49 40.24360 -111.74435 4893 ft 149 kts 146°
2026-04-27 02:49 40.23502 -111.73669 4661 ft 152 kts 146°
2026-04-27 02:49 40.22620 -111.72892 4508 ft 147 kts 147°
2026-04-27 02:50 40.21886 -111.72241 4501 ft 104 kts 146°
2026-04-27 02:50 40.21417 -111.71824 4502 ft 59 kts 146°
2026-04-27 02:50 40.21159 -111.71595 4499 ft 30 kts 146°
2026-04-27 02:50 40.21089 -111.71501 4497 ft 8 kts 89°
2026-04-27 02:51 40.21116 -111.71440 4499 ft 7 kts 55°
2026-04-27 02:51 40.21142 -111.71396 4499 ft 5 kts 42°
2026-04-27 02:51 40.21178 -111.71394 4500 ft 10 kts 337°
2026-04-27 02:51 40.21238 -111.71401 4499 ft 9 kts 42°
2026-04-27 02:52 40.21258 -111.71380 4502 ft 1 kts 34°
2026-04-27 02:52 40.21295 -111.71359 4499 ft 7 kts 19°
2026-04-27 02:52 40.21326 -111.71324 4503 ft 3 kts 56°
2026-04-27 02:52 40.21334 -111.71308 4499 ft 1 kts 56°
2026-04-27 02:53 40.21335 -111.71307 4499 ft 0 kts 56°